sat.trackr.live / text

‹ back to catalog

STARLINK-11234 [DTC]

NORAD 60400 · 2024-141C

PAYLOAD ACTIVE UNKNOWN

§ Identity

Operator
Country
US
Launch date
2024-08-10
Launch site
AFETR
Launch vehicle
Mass (kg)
RCS (m²)

Purposes: comms

External: N2YO · Heavens-Above · Gunter

§ Orbital elements

Epoch: 2026-05-25T01:54:14.194944Z

Period
91.74 min
Inclination
53.1570°
Eccentricity
0.0000774
Mean motion
15.69710643 rev/d
Perigee alt
359.2 km
Apogee alt
360.2 km
Semi-major
6,737.9 km
B*
1.4868e-5
RAAN
69.4807°
Arg perigee
98.3997°
Mean anomaly
261.7109°
Rev number
10,369

§ Raw data

STARLINK-11234 [DTC]1 60400U 24141C   26145.07933096  .00001213  00000+0  14868-4 0  99942 60400  53.1570  69.4807 0000774  98.3997 261.7109 15.69710643103697

JSON: /api/v1/satellites/60400 · /tle

For live sub-satellite position, see the globe view (requires WebGL).

§ Visibility from observer

Set your observer location to see the next 7 days of passes ≥ 10°. The values pass through the URL so the page stays shareable.

No JS? Fill the form by hand. The geolocation button needs JavaScript.